www.pogodaiklimat.ru

Погода и климат >> Архив погоды >> Катар >> Доха


АРХИВ ПОГОДЫ в Дохе

Время (UTC), дата Ветер
(напр.,м/с)
 
Видим.   Явления Облачность Т
(С)
Тd
(С)
f
(%)
Тe
(С)
Тes
(С)
Комфортность P
(гПа)
Po
(гПа)
Тmin
(С)
Tmax
(С)
R
(мм)
R24
(мм)
S
(см)
15 14.07 СЗ 13 20 км н/о +38.8 +8.7 16 +37 +37 очень
жарко
997.9 996.6
18 14.07 СЗ 9 20 км н/о +36.4 +4.3 14 +34 +34 очень
жарко
999.4 998.1 +41.1
21 14.07 З 6 20 км н/о +35.9 +8.4 19 +34 +34 очень
жарко
998.3 997.0
00 15.07 З 7 20 км н/о +33.7 +17.3 38 +37 +37 очень
душно
997.3 996.0
03 15.07 З 5 20 км н/о +33.7 +14.9 32 +35 +35 очень
жарко
998.1 996.8
06 15.07 СЗ 11 19 км н/о +39.4 +8.3 15 +37 +37 очень
жарко
998.6 997.3 +33.3
09 15.07 З 13 20 км н/о +42.9 +1.8 8 +39 +39 очень
жарко
998.0 996.7
12 15.07 СЗ 16 20 км н/о +42.0 +2.3 9 +39 +39 очень
жарко
996.7 995.4
15 15.07 СЗ 10 20 км н/о +39.8 +2.2 10 +36 +36 очень
жарко
996.3 995.0
18 15.07 З 7 20 км н/о +37.4 +7.6 16 +35 +35 очень
жарко
997.0 995.7 +43.5
06 16.07 З 11 17 км н/о +38.5 +8.4 16 +36 +36 очень
жарко
997.1 995.8 +33.9
09 16.07 СЗ 11 20 км н/о +43.3 +3.8 9 +40 +40 очень
жарко
996.0 994.7
12 16.07 СЗ 11 20 км н/о +44.0 -2.7 5 +40 +40 очень
жарко
995.0 993.7
15 16.07 СЗ 8 20 км н/о +40.8 +2.6 10 +38 +38 очень
жарко
995.5 994.2
18 16.07 СЗ 9 20 км н/о +39.2 +0.1 9 +35 +35 очень
жарко
996.6 995.3 +44.5
21 16.07 СЗ 10 19 км н/о +38.3 +7.2 15 +36 +36 очень
жарко
996.2 994.9
00 17.07 СЗ 11 20 км н/о +36.3 +15.2 29 +38 +38 очень
душно
996.3 995.0
03 17.07 СЗ 18 18 км н/о +35.7 +14.2 28 +37 +37 душно 997.3 996.0
06 17.07 СЗ 16 18 км н/о +38.7 +12.8 21 +38 +38 очень
жарко
998.8 997.5 +35.7
09 17.07 СЗ 18 20 км н/о +38.5 +17.5 29 +41 +41 опасность
перегрева
998.6 997.3
12 17.07 СЗ 20 20 км н/о +38.2 +17.8 30 +41 +41 опасность
перегрева
997.9 996.6
15 17.07 СЗ 17 20 км н/о +38.3 +4.9 13 +35 +35 очень
жарко
998.6 997.3
18 17.07 СЗ 11 20 км н/о +35.7 +8.8 19 +34 +34 очень
жарко
998.9 997.6 +40.7
21 17.07 СЗ 8 20 км н/о +35.7 +10.3 21 +35 +35 очень
жарко
998.1 996.8
00 18.07 З 6 20 км н/о +34.6 +15.4 32 +37 +37 очень
душно
997.8 996.5
03 18.07 З 10 19 км н/о +34.4 +14.8 31 +36 +36 душно 998.8 997.5
06 18.07 СЗ 11 16 км н/о +38.5 +14.2 24 +39 +39 душно 999.5 998.2 +34.0
09 18.07 С 14 20 км н/о +39.7 +14.2 22 +40 +40 очень
душно
999.4 998.1
12 18.07 С 12 20 км н/о +39.3 +15.2 24 +40 +40 очень
душно
997.8 996.5
15 18.07 С 6 20 км н/о +37.3 +15.9 28 +39 +39 очень
душно
997.3 996.0
18 18.07 СЗ 2 20 км н/о +34.2 +17.4 37 +38 +38 очень
душно
998.1 996.8 +40.4
21 18.07 ЮВ 4 16 км н/о +32.7 +24.4 62 +45 +45 опасность
перегрева
997.3 996.0
00 19.07 ЮВ 4 15 км н/о +32.8 +23.9 60 +45 +45 опасность
перегрева
996.8 995.5
03 19.07 В 1 17 км н/о +30.3 +20.1 54 +37 +37 очень
душно
998.2 996.9
06 19.07 Ю 4 18 км н/о +37.7 +11.7 21 +37 +37 очень
жарко
998.0 996.7 +30.3
09 19.07 В 11 19 км н/о +37.4 +18.2 33 +41 +41 опасность
перегрева
997.3 996.0
12 19.07 В 9 20 км н/о +38.2 +17.8 30 +41 +41 опасность
перегрева
996.2 994.9
15 19.07 В 6 20 км н/о +35.9 +22.8 47 +46 +46 опасность
перегрева
996.2 994.9
18 19.07 С 7 16 км н/о +33.2 +26.2 67 +49 +49 опасность
перегрева
998.1 996.8 +40.6
21 19.07 СВ 7 13 км н/о +32.6 +26.7 71 +50 +50 опасность
перегрева
998.7 997.4
00 20.07 Ю 1 17 км н/о +32.7 +24.5 62 +45 +45 опасность
перегрева
997.5 996.2
03 20.07 С 4 10 км н/о +32.2 +25.5 68 +47 +47 опасность
перегрева
998.9 997.6
06 20.07 СЗ 5 14 км н/о +34.7 +24.5 56 +48 +48 опасность
перегрева
999.9 998.6 +31.7
09 20.07 СВ 7 18 км н/о +36.4 +22.2 44 +45 +45 опасность
перегрева
999.9 998.6
12 20.07 СВ 8 16 км н/о +37.5 +16.5 29 +40 +40 очень
душно
998.4 997.1
15 20.07 С 7 6000 м н/о +34.9 +24.6 55 +48 +48 опасность
перегрева
998.2 996.9
18 20.07 С 5 н/о н/о +33.4 +27.0 69 +51 +51 опасность
перегрева
999.2 997.9 +38.3
21 20.07 СЗ 4 н/о н/о +32.5 +27.1 73 +51 +51 опасность
перегрева
998.9 997.6
00 21.07 СЗ 4 н/о н/о +32.0 +26.9 74 +49 +49 опасность
перегрева
998.6 997.3
03 21.07 СЗ 4 н/о н/о +32.0 +26.9 74 +49 +49 опасность
перегрева
1000.0 998.7
06 21.07 ЮВ 2 7000 м н/о +34.7 +25.7 60 +50 +50 опасность
перегрева
1000.4 999.1 +31.6
09 21.07 С 6 12 км н/о +38.1 +16.2 28 +40 +40 очень
душно
999.6 998.3
12 21.07 СВ 9 9000 м н/о +37.8 +21.5 39 +45 +45 опасность
перегрева
998.1 996.8

 

Местоположение метеостанции Доха (Катар): широта 25.25 долгота 51.57 высота над уровнем моря 10 м.

В архиве по умолчанию представлена погода в Дохе за последнюю неделю. Архивные данные за месяц целиком и за предыдущие месяцы, начиная с января 2011 года, Вы можете получить, выбрав интересующий диапазон дат из раскрывающегося списка и нажав кнопку "Ввод!".


*Определитесь, кто Вы:
робот инопланетянин человек

Внимание! Время в таблицах - всемирное. Для получения местного времени необходимо прибавить поправку, которая равна 4 ч.

Смотрите также архив погоды в соседних городах и на ближайших метеорологических станциях:

Погода в Аэропорту Хамад (Катар) (5 км)
Погода в Доха порту (Катар) (26 км)
Погода в Духане (Катар) (84 км)
Погода в Абу Самба (Катар) (94 км)
Погода в Бахрейне (Бахрейн) (146 км)
Погода в Дахране (Саудовская Аравия) (180 км)
Погода в Эль-Хуфуфе (Саудовская Аравия) (210 км)
Погода в Эд-Даммаме (Саудовская Аравия) (220 км)
Погода на Острове Киш (Иран) (278 км)
Погода в Бендер-Дейере (Иран) (289 км)

Пояснения к столбцам:

Ветер - указаны скорость ветра в м/с - средняя за 10 мин, порывы в срок и между сроками (в фигурных скобках) и направление, откуда дует ветер: С - северный, СВ - северо-восточный, В - восточный, ЮВ - юго-восточный, Ю - южный, ЮЗ - юго-западный, З - западный, СЗ - северо-западный.
Видимость - горизонтальная дальность видимости в метрах или километрах. При видимости от 1 до 10 км при отсутствии осадков обычно наблюдается дымка, при ухудшении видимости до 1 км и менее - туман. В сухую погоду видимость может ухудшаться дымом, пылью или мглою.
Явления - указаны атмосферные явления, наблюдавшиеся в срок или в последний час перед сроком; фигурными скобками обозначены явления, наблюдавшиеся между сроками (за 1-3 часа до срока); квадратными скобками обозначены град или гололедные отложения с указанием их диаметра в мм.
Облачность - указаны через наклонную черту общая и нижняя облачность в баллах и высота нижней границы облаков в метрах; квадратными скобками обозначены формы облаков: Ci - перистые, Cs - перисто-слоистые, Cc - перисто-кучевые, Ac - высококучевые, As - высокослоистые, Sc - слоисто-кучевые, Ns - слоисто-дождевые, Cu - кучевые, Cb - кучево-дождевые. Подробнее классификацию облаков см. в Атласе облаков (PDF).
T - Температура воздуха - температура, измеренная на высоте 2 м над землей.
Td - Температура точки росы - температура, при понижении до которой содержащийся в воздухе водяной пар достигнет насыщения.
f - Относительная влажность воздуха - влажноcть воздуха, измеренная на высоте 2 м над землей.
Te - Эффективная температура - температура, которую ощущает одетый по сезону человек в тени. Характеристика душности погоды. При расчете учитывается влияние влажности воздуха и скорости ветра на теплоощущения человека.
Tes - Эффективная температура на солнце - температура, которую ощущает человек, с поправкой на солнечный нагрев. Характеристика знойности погоды. Зависит от высоты солнца над горизонтом, облачности и скорости ветра. Ночью, в пасмурную погоду, а также при ветре 12 м/с и более поправка равна нулю.
P - Атмосферное давление - приведенное к уровню моря атмосферное давление.
Po - Атмосферное давление - измеренное на уровне метеостанции атмосферное давление.
Tmin - Минимальная температура - минимум температуры воздуха на высоте 2 м над землей.
Tmax - Максимальная температура - максимум температуры воздуха на высоте 2 м над землей.
R - Количество осадков - Количество выпавших осадков за период времени, мм. При наведении курсора мыши на число - период времени, за который выпало указанное количество осадков.
R24 - Количество осадков - Количество выпавших осадков за 24 часа, мм.
S - Снежный покров - Высота снежного покрова, см. При наведении курсора мыши на число - состояние снежного покрова и степень покрытия местности в баллах.